Showing default

COSMOS 1168, 11735

Orbit data source: Space-Track

COSMOS 1168, 11735 is a payload satellite owned by VMF (CIS) in LEO that was launched on Mon, 17 Mar 1980 UTC via a KOSMOS 11K65M launch vehicle from the Plesetsk Missile And Space Complex (PKMTR). Payload-class satellites include a variety of spacecraft equipped with specific instruments for various scientific and technological missions. These include communications satellites like Starlink; space stations such as the ISS; scientific satellites like the Hubble; Earth observation satellites from companies like Planet Labs, Umbra, and HawkEye 360; GPS; miniature CubeSats for education and research; and military/defense satellites.

Loading next visibility...
Identifier
11735, 1980-022A
Orbit
LEO
Country
Flag of CISCIS
Related business
Manufacturer
Omsk Av. Zav.
Mission
Spacecraft
Bus & Motor
KAUR-1 11F643, Unknown motor
Mass
800 kg wet, 800 kg dry
Launch date (UTC)
1980-03-17 (46 years ago)
Launch vehicle
KOSMOS 11K65M
Launch site
Plesetsk Missile And Space Complex (PKMTR)
Object type
Payload
Rocket body
Debris
Shape & HBR
Unknown
Radar Cross Section
Large (>1 m²)

Expand to show TLE details & history
Last TLE update: 14 hours ago

TLE from 14 hours ago
0 COSMOS 1168
1 11735U 80022A   25348.74255179  .00000055  00000-0  41039-4 0  9992
2 11735  82.9472  51.0579 0036187 153.5610 329.8769 13.75232168294809
Epoch: 2025-12-14T17:49Z
TLE epoch observation values (Epoch: 2025-12-14T17:49:16.474Z)
Latitude
56.21202°
Longitude
-130.5107°
Altitude
967.207 km
Speed
7.385 km/s
True Right ascension
14h 41m 50s
True Declination
56° 03' 27"
Sunlit
Object was in daylight at epoch
Visualization orbit readout
Latitude
Unknown
Longitude
Unknown
Altitude
Unknown
Speed
Unknown
Apparent Right ascension
Unknown
Apparent Declination
Unknown
Sunlit
N/A
Visualization observer readout
Local Sidereal Time
06:39:14
Azimuth
Unknown
Elevation
Unknown
Doppler factor
Unknown
Orbital elements
Apogee altitude
1,004.614 km
Perigee altitude
951.375 km
Semi-major axis
7,356.132 km
Eccentricity
0.00362
Inclination
82.9472°
RAAN
51.0579°
Arg. of periapsis
153.561°
True anomaly
329.66798°
Mean anomaly
329.8769°
Eccentric anomaly
329.77252°
Mean motion
3.44008 °/min
Orbital period
104.65 mins
BSTAR
0.000041039
Loading maneuver chart data...
Computing Atmospheric mass density...
Loading historical data...
Loading historical data...
Loading historical data...
Loading historical data...
Loading historical data...
Loading historical data...
Loading historical data...
Other satellites on launch #22 in the year 1980 (1980-03-17 UTC)

Documentation

Showing up to 5 results
|